Find Starlink 31460

NORAD ID: 59008 Int'l Des: 2024-036 Owner: SPXS Country: US Constellation: starlink operational
LEOCIRCULAR

实时位置

正在加载3D地球...

关于 Starlink 31460

正在加载描述...

即将过境

Passes for default location (London). Set your location on the main map for personalized predictions.

高度历史

Loading altitude history...

两行轨道根数

1 59008U 24036L 26126.37797203 .00000002 00000-0 12224-4 0 9999
2 59008 53.1619 170.3133 0001683 78.7020 281.4170 15.30186129124151
Epoch: May 6, 2026 • Age: 12 hours

当前状态

高度 490.4 km
速度 7.62 km/s
星下点 -42.32°S, 150.15°W
发射日期 Feb 23, 2024
运行时间 2.1 years
类型 internet

技术详情

分类 Payload
质量 730.00 kg
干质量 700.00 kg
总质量 730.00 kg
长度 0.30 m
直径 4.10 m
跨度 29.00 m
形状 Box + pan
制造商 SPXS
平台类型 Starlink V2M
阶段状态 In Orbit
所有者/国家 SPXS/US

Most Searched